OVZON-3

Last updated on Thu Jul 03 2025 00:02:49 GMT+0000 (Coordinated Universal Time)

1 58698U 24003A 25183.60600336 .00000059 00000+0 00000+0 0 9990 2 58698 0.0109 12.4876 0000301 46.1340 140.1018 1.00271909 3937
UTC large
Height (km)
Speed (km/s)
/
Latitude / Longitude
Inclination (degrees)
Orbital Period (minutes)
Azimuth
Elevation
Range (km)
Doppler Factor

Next 0 passes for location: London (51.5072 / 0.1276)

Sorry there are no passes over London.